Val Marie Southeast, Saskatchewan

4:23 PM CST on April 25, 2018 (GMT -0600)
Val Marie Southeast

Weather History for CWVN - May, 2013

Change the Weather History Date:

Saturday, May 11, 2013

  Actual Average Record
Temperature  
Mean Temperature 44 °F -  
Max Temperature 68 °F - - ()
Min Temperature 19 °F - - ()
Degree Days  
Heating Degree Days 22    
Moisture  
Dew Point 23 °F    
Average Humidity 44    
Maximum Humidity 89    
Minimum Humidity 11    
Precipitation  
Precipitation 0.00 in - - ()
Sea Level Pressure  
Sea Level Pressure 30.32 in    
Wind  
Wind Speed 7 mph ()    
Max Wind Speed 16 mph    
Max Gust Speed 24 mph    
T = Trace of Precipitation, MM = Missing Value Source: Averaged Metar Reports

Daily Weather History Graph

Daily Weather History Graph

Search for Another Location

Airport or City:

Astronomy

May. 11, 2013 Rise Set
Actual Time 5:32 AM CST 8:41 PM CST
Civil Twilight 4:55 AM CST 9:19 PM CST
Nautical Twilight 4:06 AM CST 10:08 PM CST
Astronomical Twilight 3:04 AM CST 11:10 PM CST
Moon 6:40 AM CST (5/11) 10:27 PM CST (5/11)
Length of Visible Light 16h 23m
Length of Day
15h 08m
Waxing Crescent, 3% of the Moon is Illuminated
May 11
Waxing Crescent
May 17
First Quarter
May 24
Full
May 31
Last Quarter
Jun 8
New

Hourly Weather History & Observations

Time (CST) Temp. Windchill Dew Point Humidity Pressure Visibility Wind Dir Wind Speed Gust Speed Precip Events Conditions
12:00 AM 30 °F - 21 °F 59% 30.48 in - East 4.6 mph - -  
12:00 AM 30.4 °F 25.6 °F 21.2 °F 69% 30.48 in - East 4.6 mph - N/A   Unknown
1:00 AM 29.1 °F 20.6 °F 22.8 °F 77% 30.48 in - NE 9.2 mph - N/A   Unknown
2:00 AM 29.1 °F - 21.6 °F 73% 30.47 in - ESE 1.2 mph - N/A   Unknown
3:00 AM 25 °F - 21 °F 77% 30.48 in - NE 2.3 mph - -  
3:00 AM 25.3 °F - 20.7 °F 82% 30.48 in - NE 2.3 mph - N/A   Unknown
4:00 AM 20.8 °F 16.0 °F 18.0 °F 89% 30.49 in - ENE 3.5 mph - N/A   Unknown
5:00 AM 20.1 °F - 16.3 °F 85% 30.49 in - West 1.2 mph - N/A   Unknown
6:00 AM 22 °F - 20 °F 86% 30.48 in - East 3.5 mph - -  
6:00 AM 22.5 °F 17.8 °F 19.6 °F 89% 30.48 in - East 3.5 mph - N/A   Unknown
7:00 AM 34.7 °F - 24.1 °F 65% 30.46 in - SE 2.3 mph - N/A   Unknown
8:00 AM 41.9 °F 35.9 °F 22.3 °F 46% 30.44 in - SSE 10.4 mph - N/A   Unknown
9:00 AM 46 °F - 22 °F 25% 30.42 in - South 13.8 mph - -  
9:00 AM 46.2 °F 40.1 °F 21.7 °F 38% 30.42 in - South 13.8 mph - N/A   Unknown
10:00 AM 50.9 °F - 21.4 °F 31% 30.39 in - South 16.1 mph - N/A   Unknown
11:00 AM 54.5 °F - 21.4 °F 28% 30.36 in - South 13.8 mph - N/A   Unknown
12:00 PM 58 °F - 23 °F 15% 30.33 in - South 13.8 mph - -  
12:00 PM 57.6 °F - 23.0 °F 26% 30.33 in - South 13.8 mph 19.6 mph N/A   Unknown
1:00 PM 60.3 °F - 24.8 °F 26% 30.28 in - South 15.0 mph 24.2 mph N/A   Unknown
2:00 PM 62.6 °F - 23.9 °F 23% 30.26 in - South 12.7 mph 19.6 mph N/A   Unknown
3:00 PM 65 °F - 24 °F 11% 30.23 in - South 13.8 mph - -  
3:00 PM 65.5 °F - 24.3 °F 21% 30.23 in - South 13.8 mph 20.7 mph N/A   Unknown
4:00 PM 66.7 °F - 24.8 °F 21% 30.21 in - South 12.7 mph 19.6 mph N/A   Unknown
5:00 PM 68.0 °F - 27.1 °F 22% 30.17 in - SSE 10.4 mph - N/A   Unknown
6:00 PM 67 °F - 27 °F 13% 30.14 in - SSE 10.4 mph - -  
6:00 PM 66.6 °F - 27.3 °F 23% 30.14 in - SSE 10.4 mph - N/A   Unknown
7:00 PM 64.2 °F - 26.4 °F 24% 30.12 in - SE 13.8 mph - N/A   Unknown
8:00 PM 59.5 °F - 27.9 °F 30% 30.11 in - SE 10.4 mph - N/A   Unknown
9:00 PM 52 °F - 27 °F 26% 30.11 in - SE 9.2 mph - -  
9:00 PM 52.3 °F - 27.3 °F 38% 30.11 in - SE 9.2 mph - N/A   Unknown
10:00 PM 50.7 °F - 26.6 °F 39% 30.10 in - SE 9.2 mph - N/A   Unknown
11:00 PM 49.5 °F - 25.9 °F 40% 30.09 in - SE 9.2 mph - N/A   Unknown